Year,Month,Day,Hour,Minute,Value (Times are PST for temperature in C)
2013,09,10,00,00,14.70
2013,09,10,00,01,14.70
2013,09,10,00,02,14.70
2013,09,10,00,03,14.70
2013,09,10,00,04,14.70
2013,09,10,00,05,14.70
2013,09,10,00,06,14.70
2013,09,10,00,07,14.70
2013,09,10,00,08,14.70
2013,09,10,00,09,14.60
2013,09,10,00,10,14.60
2013,09,10,00,11,14.60
2013,09,10,00,12,14.60
2013,09,10,00,13,14.60
2013,09,10,00,14,14.60
2013,09,10,00,15,14.50
2013,09,10,00,16,14.50
2013,09,10,00,17,14.50
2013,09,10,00,18,14.50
2013,09,10,00,19,14.40
2013,09,10,00,20,14.40
2013,09,10,00,21,14.40
2013,09,10,00,22,14.40
2013,09,10,00,23,14.40
2013,09,10,00,24,14.40
2013,09,10,00,25,14.40
2013,09,10,00,26,14.40
2013,09,10,00,27,14.40
2013,09,10,00,28,14.40
2013,09,10,00,29,14.40
2013,09,10,00,30,14.30
2013,09,10,00,31,14.30
2013,09,10,00,32,14.30
2013,09,10,00,33,14.30
2013,09,10,00,34,14.20
2013,09,10,00,35,14.20
2013,09,10,00,36,14.20
2013,09,10,00,37,14.20
2013,09,10,00,38,14.20
2013,09,10,00,39,14.20
2013,09,10,00,40,14.10
2013,09,10,00,41,14.10
2013,09,10,00,42,14.10
2013,09,10,00,43,14.10
2013,09,10,00,44,14.10
2013,09,10,00,45,14.10
2013,09,10,00,46,14.00
2013,09,10,00,47,14.00
2013,09,10,00,48,14.00
2013,09,10,00,49,14.00
2013,09,10,00,50,14.00
2013,09,10,00,51,14.00
2013,09,10,00,52,14.00
2013,09,10,00,53,14.00
2013,09,10,00,54,14.00
2013,09,10,00,55,14.00
2013,09,10,00,56,13.90
2013,09,10,00,57,13.90
2013,09,10,00,58,13.90
2013,09,10,00,59,13.90
2013,09,10,01,00,13.90
2013,09,10,01,01,13.80
2013,09,10,01,02,13.80
2013,09,10,01,03,13.80
2013,09,10,01,04,13.80
2013,09,10,01,05,13.80
2013,09,10,01,06,13.80
2013,09,10,01,07,13.70
2013,09,10,01,08,13.70
2013,09,10,01,09,13.70
2013,09,10,01,10,13.70
2013,09,10,01,11,13.70
2013,09,10,01,12,13.70
2013,09,10,01,13,13.70
2013,09,10,01,14,13.70
2013,09,10,01,15,13.70
2013,09,10,01,16,13.70
2013,09,10,01,17,13.70
2013,09,10,01,18,13.70
2013,09,10,01,19,13.70
2013,09,10,01,20,13.70
2013,09,10,01,21,13.70
2013,09,10,01,22,13.70
2013,09,10,01,23,13.70
2013,09,10,01,24,13.70
2013,09,10,01,25,13.70
2013,09,10,01,26,13.70
2013,09,10,01,27,13.70
2013,09,10,01,28,13.70
2013,09,10,01,29,13.70
2013,09,10,01,30,13.70
2013,09,10,01,31,13.70
2013,09,10,01,32,13.70
2013,09,10,01,33,13.70
2013,09,10,01,34,13.70
2013,09,10,01,35,13.70
2013,09,10,01,36,13.60
2013,09,10,01,37,13.60
2013,09,10,01,38,13.60
2013,09,10,01,39,13.60
2013,09,10,01,40,13.60
2013,09,10,01,41,13.60
2013,09,10,01,42,13.50
2013,09,10,01,43,13.50
2013,09,10,01,44,13.50
2013,09,10,01,45,13.50
2013,09,10,01,46,13.50
2013,09,10,01,47,13.50
2013,09,10,01,48,13.50
2013,09,10,01,49,13.50
2013,09,10,01,50,13.50
2013,09,10,01,51,13.50
2013,09,10,01,52,13.50
2013,09,10,01,53,13.50
2013,09,10,01,54,13.50
2013,09,10,01,55,13.50
2013,09,10,01,56,13.40
2013,09,10,01,57,13.40
2013,09,10,01,58,13.40
2013,09,10,01,59,13.40
2013,09,10,02,00,13.50
2013,09,10,02,01,13.40
2013,09,10,02,02,13.40
2013,09,10,02,03,13.40
2013,09,10,02,04,13.40
2013,09,10,02,05,13.40
2013,09,10,02,06,13.40
2013,09,10,02,07,13.40
2013,09,10,02,08,13.30
2013,09,10,02,09,13.30
2013,09,10,02,10,13.30
2013,09,10,02,11,13.30
2013,09,10,02,12,13.30
2013,09,10,02,13,13.30
2013,09,10,02,14,13.30
2013,09,10,02,15,13.30
2013,09,10,02,16,13.30
2013,09,10,02,17,13.30
2013,09,10,02,18,13.30
2013,09,10,02,19,13.30
2013,09,10,02,20,13.30
2013,09,10,02,21,13.30
2013,09,10,02,22,13.30
2013,09,10,02,23,13.30
2013,09,10,02,24,13.30
2013,09,10,02,25,13.30
2013,09,10,02,26,13.30
2013,09,10,02,27,13.20
2013,09,10,02,28,13.20
2013,09,10,02,29,13.20
2013,09,10,02,30,13.20
2013,09,10,02,31,13.20
2013,09,10,02,32,13.10
2013,09,10,02,33,13.10
2013,09,10,02,34,13.10
2013,09,10,02,35,13.10
2013,09,10,02,36,13.00
2013,09,10,02,37,13.00
2013,09,10,02,38,13.00
2013,09,10,02,39,13.00
2013,09,10,02,40,13.00
2013,09,10,02,41,12.90
2013,09,10,02,42,12.90
2013,09,10,02,43,12.90
2013,09,10,02,44,12.90
2013,09,10,02,45,13.00
2013,09,10,02,46,13.00
2013,09,10,02,47,13.00
2013,09,10,02,48,13.00
2013,09,10,02,49,12.90
2013,09,10,02,50,12.90
2013,09,10,02,51,12.90
2013,09,10,02,52,12.80
2013,09,10,02,53,12.80
2013,09,10,02,54,12.80
2013,09,10,02,55,12.80
2013,09,10,02,56,12.70
2013,09,10,02,57,12.70
2013,09,10,02,58,12.70
2013,09,10,02,59,12.60
2013,09,10,03,00,12.60
2013,09,10,03,01,12.60
2013,09,10,03,02,12.60
2013,09,10,03,03,12.60
2013,09,10,03,04,12.60
2013,09,10,03,05,12.50
2013,09,10,03,06,12.50
2013,09,10,03,07,12.50
2013,09,10,03,08,12.50
2013,09,10,03,09,12.40
2013,09,10,03,10,12.40
2013,09,10,03,11,12.40
2013,09,10,03,12,12.40
2013,09,10,03,13,12.40
2013,09,10,03,14,12.40
2013,09,10,03,15,12.40
2013,09,10,03,16,12.40
2013,09,10,03,17,12.30
2013,09,10,03,18,12.30
2013,09,10,03,19,12.30
2013,09,10,03,20,12.30
2013,09,10,03,21,12.30
2013,09,10,03,22,12.30
2013,09,10,03,23,12.30
2013,09,10,03,24,12.20
2013,09,10,03,25,12.20
2013,09,10,03,26,12.20
2013,09,10,03,27,12.20
2013,09,10,03,28,12.20
2013,09,10,03,29,12.20
2013,09,10,03,30,12.20
2013,09,10,03,31,12.10
2013,09,10,03,32,12.10
2013,09,10,03,33,12.10
2013,09,10,03,34,12.10
2013,09,10,03,35,12.10
2013,09,10,03,36,12.10
2013,09,10,03,37,12.00
2013,09,10,03,38,12.00
2013,09,10,03,39,12.00
2013,09,10,03,40,12.00
2013,09,10,03,41,12.00
2013,09,10,03,42,12.00
2013,09,10,03,43,12.00
2013,09,10,03,44,12.00
2013,09,10,03,45,12.00
2013,09,10,03,46,12.00
2013,09,10,03,47,12.00
2013,09,10,03,48,12.00
2013,09,10,03,49,12.00
2013,09,10,03,50,11.90
2013,09,10,03,51,11.90
2013,09,10,03,52,11.90
2013,09,10,03,53,11.90
2013,09,10,03,54,11.90
2013,09,10,03,55,11.90
2013,09,10,03,56,11.90
2013,09,10,03,57,11.90
2013,09,10,03,58,11.90
2013,09,10,03,59,11.90
2013,09,10,04,00,11.80
2013,09,10,04,01,11.80
2013,09,10,04,02,11.80
2013,09,10,04,03,11.80
2013,09,10,04,04,11.80
2013,09,10,04,05,11.80
2013,09,10,04,06,11.80
2013,09,10,04,07,11.80
2013,09,10,04,08,11.80
2013,09,10,04,09,11.80
2013,09,10,04,10,11.80
2013,09,10,04,11,11.80
2013,09,10,04,12,11.80
2013,09,10,04,13,11.80
2013,09,10,04,14,11.80
2013,09,10,04,15,11.80
2013,09,10,04,16,11.80
2013,09,10,04,17,11.80
2013,09,10,04,18,11.80
2013,09,10,04,19,11.80
2013,09,10,04,20,11.80
2013,09,10,04,21,11.80
2013,09,10,04,22,11.80
2013,09,10,04,23,11.80
2013,09,10,04,24,11.80
2013,09,10,04,25,11.80
2013,09,10,04,26,11.80
2013,09,10,04,27,11.70
2013,09,10,04,28,11.70
2013,09,10,04,29,11.70
2013,09,10,04,30,11.70
2013,09,10,04,31,11.70
2013,09,10,04,32,11.70
2013,09,10,04,33,11.70
2013,09,10,04,34,11.70
2013,09,10,04,35,11.70
2013,09,10,04,36,11.70
2013,09,10,04,37,11.70
2013,09,10,04,38,11.70
2013,09,10,04,39,11.60
2013,09,10,04,40,11.60
2013,09,10,04,41,11.60
2013,09,10,04,42,11.60
2013,09,10,04,43,11.60
2013,09,10,04,44,11.60
2013,09,10,04,45,11.60
2013,09,10,04,46,11.60
2013,09,10,04,47,11.60
2013,09,10,04,48,11.60
2013,09,10,04,49,11.50
2013,09,10,04,50,11.50
2013,09,10,04,51,11.50
2013,09,10,04,52,11.50
2013,09,10,04,53,11.50
2013,09,10,04,54,11.50
2013,09,10,04,55,11.40
2013,09,10,04,56,11.40
2013,09,10,04,57,11.40
2013,09,10,04,58,11.40
2013,09,10,04,59,11.40
2013,09,10,05,00,11.40
2013,09,10,05,01,11.40
2013,09,10,05,02,11.40
2013,09,10,05,03,11.40
2013,09,10,05,04,11.40
2013,09,10,05,05,11.40
2013,09,10,05,06,11.40
2013,09,10,05,07,11.30
2013,09,10,05,08,11.30
2013,09,10,05,09,11.30
2013,09,10,05,10,11.30
2013,09,10,05,11,11.30
2013,09,10,05,12,11.30
2013,09,10,05,13,11.30
2013,09,10,05,14,11.30
2013,09,10,05,15,11.30
2013,09,10,05,16,11.30
2013,09,10,05,17,11.30
2013,09,10,05,18,11.30
2013,09,10,05,19,11.30
2013,09,10,05,20,11.30
2013,09,10,05,21,11.20
2013,09,10,05,22,11.20
2013,09,10,05,23,11.20
2013,09,10,05,24,11.20
2013,09,10,05,25,11.20
2013,09,10,05,26,11.20
2013,09,10,05,27,11.20
2013,09,10,05,28,11.20
2013,09,10,05,29,11.20
2013,09,10,05,30,11.20
2013,09,10,05,31,11.20
2013,09,10,05,32,11.10
2013,09,10,05,33,11.10
2013,09,10,05,34,11.10
2013,09,10,05,35,11.10
2013,09,10,05,36,11.10
2013,09,10,05,37,11.10
2013,09,10,05,38,11.10
2013,09,10,05,39,11.10
2013,09,10,05,40,11.10
2013,09,10,05,41,11.10
2013,09,10,05,42,11.10
2013,09,10,05,43,11.10
2013,09,10,05,44,11.10
2013,09,10,05,45,11.10
2013,09,10,05,46,11.10
2013,09,10,05,47,11.10
2013,09,10,05,48,11.10
2013,09,10,05,49,11.10
2013,09,10,05,50,11.10
2013,09,10,05,51,11.10
2013,09,10,05,52,11.10
2013,09,10,05,53,11.00
2013,09,10,05,54,11.00
2013,09,10,05,55,11.00
2013,09,10,05,56,11.00
2013,09,10,05,57,11.00
2013,09,10,05,58,10.90
2013,09,10,05,59,10.90
2013,09,10,06,00,10.90
2013,09,10,06,01,10.90
2013,09,10,06,02,10.90
2013,09,10,06,03,10.90
2013,09,10,06,04,10.90
2013,09,10,06,05,10.90
2013,09,10,06,06,10.90
2013,09,10,06,07,10.90
2013,09,10,06,08,10.90
2013,09,10,06,09,10.90
2013,09,10,06,10,10.90
2013,09,10,06,11,11.00
2013,09,10,06,12,11.00
2013,09,10,06,13,10.90
2013,09,10,06,14,11.00
2013,09,10,06,15,11.00
2013,09,10,06,16,11.00
2013,09,10,06,17,11.00
2013,09,10,06,18,11.00
2013,09,10,06,19,11.00
2013,09,10,06,20,11.00
2013,09,10,06,21,10.90
2013,09,10,06,22,10.90
2013,09,10,06,23,10.90
2013,09,10,06,24,10.90
2013,09,10,06,25,10.90
2013,09,10,06,26,10.90
2013,09,10,06,27,10.90
2013,09,10,06,28,10.90
2013,09,10,06,29,10.90
2013,09,10,06,30,10.90
2013,09,10,06,31,10.90
2013,09,10,06,32,10.90
2013,09,10,06,33,10.90
2013,09,10,06,34,10.90
2013,09,10,06,35,10.90
2013,09,10,06,36,11.00
2013,09,10,06,37,11.00
2013,09,10,06,38,11.00
2013,09,10,06,39,11.00
2013,09,10,06,40,11.00
2013,09,10,06,41,11.10
2013,09,10,06,42,11.10
2013,09,10,06,43,11.10
2013,09,10,06,44,11.10
2013,09,10,06,45,11.10
2013,09,10,06,46,11.10
2013,09,10,06,47,11.10
2013,09,10,06,48,11.10
2013,09,10,06,49,11.10
2013,09,10,06,50,11.10
2013,09,10,06,51,11.10
2013,09,10,06,52,11.10
2013,09,10,06,53,11.10
2013,09,10,06,54,11.00
2013,09,10,06,55,11.00
2013,09,10,06,56,11.00
2013,09,10,06,57,11.00
2013,09,10,06,58,11.00
2013,09,10,06,59,11.00
2013,09,10,07,00,11.00
2013,09,10,07,01,11.10
2013,09,10,07,02,11.10
2013,09,10,07,03,11.10
2013,09,10,07,04,11.10
2013,09,10,07,05,11.00
2013,09,10,07,06,11.00
2013,09,10,07,07,11.00
2013,09,10,07,08,11.00
2013,09,10,07,09,11.00
2013,09,10,07,10,10.90
2013,09,10,07,11,10.90
2013,09,10,07,12,10.90
2013,09,10,07,13,10.90
2013,09,10,07,14,10.90
2013,09,10,07,15,10.90
2013,09,10,07,16,10.90
2013,09,10,07,17,10.90
2013,09,10,07,18,10.90
2013,09,10,07,19,10.90
2013,09,10,07,20,10.90
2013,09,10,07,21,10.90
2013,09,10,07,22,10.90
2013,09,10,07,23,10.90
2013,09,10,07,24,10.90
2013,09,10,07,25,10.90
2013,09,10,07,26,10.90
2013,09,10,07,27,10.90
2013,09,10,07,28,10.90
2013,09,10,07,29,10.90
2013,09,10,07,30,10.90
2013,09,10,07,31,10.90
2013,09,10,07,32,10.90
2013,09,10,07,33,10.90
2013,09,10,07,34,10.90
2013,09,10,07,35,11.00
2013,09,10,07,36,11.00
2013,09,10,07,37,11.00
2013,09,10,07,38,11.10
2013,09,10,07,39,11.10
2013,09,10,07,40,11.10
2013,09,10,07,41,11.10
2013,09,10,07,42,11.10
2013,09,10,07,43,11.20
2013,09,10,07,44,11.20
2013,09,10,07,45,11.20
2013,09,10,07,46,11.20
2013,09,10,07,47,11.30
2013,09,10,07,48,11.30
2013,09,10,07,49,11.30
2013,09,10,07,50,11.30
2013,09,10,07,51,11.30
2013,09,10,07,52,11.30
2013,09,10,07,53,11.30
2013,09,10,07,54,11.40
2013,09,10,07,55,11.40
2013,09,10,07,56,11.40
2013,09,10,07,57,11.50
2013,09,10,07,58,11.60
2013,09,10,07,59,11.60
2013,09,10,08,00,11.70
2013,09,10,08,01,11.80
2013,09,10,08,02,11.80
2013,09,10,08,03,11.90
2013,09,10,08,04,11.90
2013,09,10,08,05,12.00
2013,09,10,08,06,12.00
2013,09,10,08,07,12.00
2013,09,10,08,08,12.10
2013,09,10,08,09,12.10
2013,09,10,08,10,12.10
2013,09,10,08,11,12.10
2013,09,10,08,12,12.10
2013,09,10,08,13,12.20
2013,09,10,08,14,12.20
2013,09,10,08,15,12.20
2013,09,10,08,16,12.30
2013,09,10,08,17,12.30
2013,09,10,08,18,12.30
2013,09,10,08,19,12.30
2013,09,10,08,20,12.40
2013,09,10,08,21,12.40
2013,09,10,08,22,12.40
2013,09,10,08,23,12.40
2013,09,10,08,24,12.50
2013,09,10,08,25,12.50
2013,09,10,08,26,12.50
2013,09,10,08,27,12.60
2013,09,10,08,28,12.60
2013,09,10,08,29,12.60
2013,09,10,08,30,12.60
2013,09,10,08,31,12.70
2013,09,10,08,32,12.70
2013,09,10,08,33,12.80
2013,09,10,08,34,12.80
2013,09,10,08,35,12.80
2013,09,10,08,36,12.90
2013,09,10,08,37,12.90
2013,09,10,08,38,12.90
2013,09,10,08,39,13.00
2013,09,10,08,40,13.10
2013,09,10,08,41,13.10
2013,09,10,08,42,13.10
2013,09,10,08,43,13.20
2013,09,10,08,44,13.30
2013,09,10,08,45,13.40
2013,09,10,08,46,13.50
2013,09,10,08,47,13.60
2013,09,10,08,48,13.80
2013,09,10,08,49,13.90
2013,09,10,08,50,14.10
2013,09,10,08,51,14.20
2013,09,10,08,52,14.30
2013,09,10,08,53,14.40
2013,09,10,08,54,14.50
2013,09,10,08,55,14.50
2013,09,10,08,56,14.60
2013,09,10,08,57,14.60
2013,09,10,08,58,14.70
2013,09,10,08,59,14.70
2013,09,10,09,00,14.70
2013,09,10,09,01,14.80
2013,09,10,09,02,14.80
2013,09,10,09,03,14.90
2013,09,10,09,04,14.90
2013,09,10,09,05,15.00
2013,09,10,09,06,15.00
2013,09,10,09,07,15.10
2013,09,10,09,08,15.10
2013,09,10,09,09,15.20
2013,09,10,09,10,15.20
2013,09,10,09,11,15.30
2013,09,10,09,12,15.30
2013,09,10,09,13,15.30
2013,09,10,09,14,15.40
2013,09,10,09,15,15.40
2013,09,10,09,16,15.50
2013,09,10,09,17,15.50
2013,09,10,09,18,15.60
2013,09,10,09,19,15.70
2013,09,10,09,20,15.70
2013,09,10,09,21,15.80
2013,09,10,09,22,15.80
2013,09,10,09,23,15.90
2013,09,10,09,24,15.90
2013,09,10,09,25,16.00
2013,09,10,09,26,16.10
2013,09,10,09,27,16.10
2013,09,10,09,28,16.20
2013,09,10,09,29,16.30
2013,09,10,09,30,16.50
2013,09,10,09,31,16.60
2013,09,10,09,32,16.60
2013,09,10,09,33,16.70
2013,09,10,09,34,16.70
2013,09,10,09,35,16.80
2013,09,10,09,36,16.80
2013,09,10,09,37,16.80
2013,09,10,09,38,16.90
2013,09,10,09,39,16.90
2013,09,10,09,40,16.90
2013,09,10,09,41,16.90
2013,09,10,09,42,16.90
2013,09,10,09,43,17.00
2013,09,10,09,44,17.00
2013,09,10,09,45,17.10
2013,09,10,09,46,17.20
2013,09,10,09,47,17.20
2013,09,10,09,48,17.20
2013,09,10,09,49,17.30
2013,09,10,09,50,17.40
2013,09,10,09,51,17.50
2013,09,10,09,52,17.60
2013,09,10,09,53,17.60
2013,09,10,09,54,17.70
2013,09,10,09,55,17.80
2013,09,10,09,56,17.90
2013,09,10,09,57,17.90
2013,09,10,09,58,18.00
2013,09,10,09,59,18.10
2013,09,10,10,00,18.10
2013,09,10,10,01,18.20
2013,09,10,10,02,18.30
2013,09,10,10,03,18.50
2013,09,10,10,04,18.60
2013,09,10,10,05,18.70
2013,09,10,10,06,18.80
2013,09,10,10,07,18.90
2013,09,10,10,08,19.00
2013,09,10,10,09,19.10
2013,09,10,10,10,19.10
2013,09,10,10,11,19.10
2013,09,10,10,12,19.10
2013,09,10,10,13,19.20
2013,09,10,10,14,19.20
2013,09,10,10,15,19.30
2013,09,10,10,16,19.30
2013,09,10,10,17,19.30
2013,09,10,10,18,19.40
2013,09,10,10,19,19.40
2013,09,10,10,20,19.50
2013,09,10,10,21,19.60
2013,09,10,10,22,19.60
2013,09,10,10,23,19.70
2013,09,10,10,24,19.80
2013,09,10,10,25,19.90
2013,09,10,10,26,20.00
2013,09,10,10,27,20.10
2013,09,10,10,28,20.10
2013,09,10,10,29,20.20
2013,09,10,10,30,20.20
2013,09,10,10,31,20.20
2013,09,10,10,32,20.20
2013,09,10,10,33,20.30
2013,09,10,10,34,20.30
2013,09,10,10,35,20.40
2013,09,10,10,36,20.40
2013,09,10,10,37,20.50
2013,09,10,10,38,20.60
2013,09,10,10,39,20.60
2013,09,10,10,40,20.60
2013,09,10,10,41,20.70
2013,09,10,10,42,20.70
2013,09,10,10,43,20.70
2013,09,10,10,44,20.80
2013,09,10,10,45,20.90
2013,09,10,10,46,20.90
2013,09,10,10,47,21.00
2013,09,10,10,48,21.00
2013,09,10,10,49,21.00
2013,09,10,10,50,21.10
2013,09,10,10,51,21.20
2013,09,10,10,52,21.30
2013,09,10,10,53,21.40
2013,09,10,10,54,21.40
2013,09,10,10,55,21.50
2013,09,10,10,56,21.60
2013,09,10,10,57,21.60
2013,09,10,10,58,21.70
2013,09,10,10,59,21.70
2013,09,10,11,00,21.80
2013,09,10,11,01,21.80
2013,09,10,11,02,21.90
2013,09,10,11,03,22.00
2013,09,10,11,04,22.00
2013,09,10,11,05,22.00
2013,09,10,11,06,22.10
2013,09,10,11,07,22.10
2013,09,10,11,08,22.10
2013,09,10,11,09,22.20
2013,09,10,11,10,22.20
2013,09,10,11,11,22.20
2013,09,10,11,12,22.20
2013,09,10,11,13,22.30
2013,09,10,11,14,22.20
2013,09,10,11,15,22.30
2013,09,10,11,16,22.30
2013,09,10,11,17,22.30
2013,09,10,11,18,22.30
2013,09,10,11,19,22.30
2013,09,10,11,20,22.40
2013,09,10,11,21,22.40
2013,09,10,11,22,22.30
2013,09,10,11,23,22.20
2013,09,10,11,24,22.20
2013,09,10,11,25,22.10
2013,09,10,11,26,22.20
2013,09,10,11,27,22.20
2013,09,10,11,28,22.20
2013,09,10,11,29,22.20
2013,09,10,11,30,22.20
2013,09,10,11,31,22.20
2013,09,10,11,32,22.20
2013,09,10,11,33,22.20
2013,09,10,11,34,22.30
2013,09,10,11,35,22.40
2013,09,10,11,36,22.50
2013,09,10,11,37,22.60
2013,09,10,11,38,22.70
2013,09,10,11,39,22.70
2013,09,10,11,40,22.70
2013,09,10,11,41,22.70
2013,09,10,11,42,22.70
2013,09,10,11,43,22.70
2013,09,10,11,44,22.70
2013,09,10,11,45,22.70
2013,09,10,11,46,22.80
2013,09,10,11,47,22.80
2013,09,10,11,48,22.80
2013,09,10,11,49,22.80
2013,09,10,11,50,22.80
2013,09,10,11,51,22.80
2013,09,10,11,52,22.80
2013,09,10,11,53,22.80
2013,09,10,11,54,22.80
2013,09,10,11,55,22.80
2013,09,10,11,56,22.80
2013,09,10,11,57,22.80
2013,09,10,11,58,22.80
2013,09,10,11,59,22.80
2013,09,10,12,00,22.80
2013,09,10,12,01,22.80
2013,09,10,12,02,22.90
2013,09,10,12,03,22.90
2013,09,10,12,04,23.00
2013,09,10,12,05,23.10
2013,09,10,12,06,23.10
2013,09,10,12,07,23.20
2013,09,10,12,08,23.20
2013,09,10,12,09,23.20
2013,09,10,12,10,23.20
2013,09,10,12,11,23.10
2013,09,10,12,12,23.10
2013,09,10,12,13,23.10
2013,09,10,12,14,23.10
2013,09,10,12,15,23.10
2013,09,10,12,16,23.10
2013,09,10,12,17,23.10
2013,09,10,12,18,23.10
2013,09,10,12,19,23.10
2013,09,10,12,20,23.20
2013,09,10,12,21,23.20
2013,09,10,12,22,23.20
2013,09,10,12,23,23.20
2013,09,10,12,24,23.30
2013,09,10,12,25,23.30
2013,09,10,12,26,23.30
2013,09,10,12,27,23.30
2013,09,10,12,28,23.40
2013,09,10,12,29,23.40
2013,09,10,12,30,23.50
2013,09,10,12,31,23.60
2013,09,10,12,32,23.70
2013,09,10,12,33,23.80
2013,09,10,12,34,23.80
2013,09,10,12,35,23.90
2013,09,10,12,36,24.00
2013,09,10,12,37,24.00
2013,09,10,12,38,24.00
2013,09,10,12,39,24.00
2013,09,10,12,40,23.90
2013,09,10,12,41,23.90
2013,09,10,12,42,23.90
2013,09,10,12,43,23.80
2013,09,10,12,44,23.80
2013,09,10,12,45,23.70
2013,09,10,12,46,23.70
2013,09,10,12,47,23.60
2013,09,10,12,48,23.60
2013,09,10,12,49,23.50
2013,09,10,12,50,23.40
2013,09,10,12,51,23.50
2013,09,10,12,52,23.60
2013,09,10,12,53,23.60
2013,09,10,12,54,23.80
2013,09,10,12,55,23.80
2013,09,10,12,56,23.90
2013,09,10,12,57,24.00
2013,09,10,12,58,24.20
2013,09,10,12,59,24.30
2013,09,10,13,00,24.40
2013,09,10,13,01,24.50
2013,09,10,13,02,24.50
2013,09,10,13,03,24.50
2013,09,10,13,04,24.60
2013,09,10,13,05,24.50
2013,09,10,13,06,24.40
2013,09,10,13,07,24.40
2013,09,10,13,08,24.30
2013,09,10,13,09,24.30
2013,09,10,13,10,24.20
2013,09,10,13,11,24.20
2013,09,10,13,12,24.20
2013,09,10,13,13,24.20
2013,09,10,13,14,24.20
2013,09,10,13,15,24.30
2013,09,10,13,16,24.30
2013,09,10,13,17,24.40
2013,09,10,13,18,24.40
2013,09,10,13,19,24.50
2013,09,10,13,20,24.60
2013,09,10,13,21,24.60
2013,09,10,13,22,24.70
2013,09,10,13,23,24.80
2013,09,10,13,24,24.90
2013,09,10,13,25,25.00
2013,09,10,13,26,25.10
2013,09,10,13,27,25.20
2013,09,10,13,28,25.20
2013,09,10,13,29,25.20
2013,09,10,13,30,25.20
2013,09,10,13,31,25.20
2013,09,10,13,32,25.20
2013,09,10,13,33,25.10
2013,09,10,13,34,25.10
2013,09,10,13,35,25.20
2013,09,10,13,36,25.20
2013,09,10,13,37,25.20
2013,09,10,13,38,25.20
2013,09,10,13,39,25.20
2013,09,10,13,40,25.20
2013,09,10,13,41,25.30
2013,09,10,13,42,25.20
2013,09,10,13,43,25.20
2013,09,10,13,44,25.20
2013,09,10,13,45,25.20
2013,09,10,13,46,25.30
2013,09,10,13,47,25.30
2013,09,10,13,48,25.30
2013,09,10,13,49,25.30
2013,09,10,13,50,25.40
2013,09,10,13,51,25.50
2013,09,10,13,52,25.60
2013,09,10,13,53,25.60
2013,09,10,13,54,25.60
2013,09,10,13,55,25.70
2013,09,10,13,56,25.70
2013,09,10,13,57,25.70
2013,09,10,13,58,25.60
2013,09,10,13,59,25.60
2013,09,10,14,00,25.60
2013,09,10,14,01,25.60
2013,09,10,14,02,25.60
2013,09,10,14,03,25.50
2013,09,10,14,04,25.50
2013,09,10,14,05,25.40
2013,09,10,14,06,25.30
2013,09,10,14,07,25.20
2013,09,10,14,08,25.10
2013,09,10,14,09,25.00
2013,09,10,14,10,25.00
2013,09,10,14,11,25.00
2013,09,10,14,12,25.00
2013,09,10,14,13,25.00
2013,09,10,14,14,25.00
2013,09,10,14,15,25.00
2013,09,10,14,16,25.10
2013,09,10,14,17,25.10
2013,09,10,14,18,25.20
2013,09,10,14,19,25.20
2013,09,10,14,20,25.30
2013,09,10,14,21,25.30
2013,09,10,14,22,25.40
2013,09,10,14,23,25.40
2013,09,10,14,24,25.40
2013,09,10,14,25,25.40
2013,09,10,14,26,25.40
2013,09,10,14,27,25.30
2013,09,10,14,28,25.20
2013,09,10,14,29,25.20
2013,09,10,14,30,25.10
2013,09,10,14,31,25.10
2013,09,10,14,32,25.10
2013,09,10,14,33,25.20
2013,09,10,14,34,25.20
2013,09,10,14,35,25.30
2013,09,10,14,36,25.30
2013,09,10,14,37,25.30
2013,09,10,14,38,25.30
2013,09,10,14,39,25.30
2013,09,10,14,40,25.30
2013,09,10,14,41,25.30
2013,09,10,14,42,25.30
2013,09,10,14,43,25.30
2013,09,10,14,44,25.40
2013,09,10,14,45,25.40
2013,09,10,14,46,25.40
2013,09,10,14,47,25.50
2013,09,10,14,48,25.50
2013,09,10,14,49,25.60
2013,09,10,14,50,25.70
2013,09,10,14,51,25.70
2013,09,10,14,52,25.70
2013,09,10,14,53,25.80
2013,09,10,14,54,25.90
2013,09,10,14,55,25.90
2013,09,10,14,56,26.00
2013,09,10,14,57,26.10
2013,09,10,14,58,26.10
2013,09,10,14,59,26.20
2013,09,10,15,00,26.20
2013,09,10,15,01,26.10
2013,09,10,15,02,26.00
2013,09,10,15,03,25.90
2013,09,10,15,04,25.80
2013,09,10,15,05,25.80
2013,09,10,15,06,25.80
2013,09,10,15,07,25.70
2013,09,10,15,08,25.70
2013,09,10,15,09,25.70
2013,09,10,15,10,25.60
2013,09,10,15,11,25.60
2013,09,10,15,12,25.70
2013,09,10,15,13,25.80
2013,09,10,15,14,25.90
2013,09,10,15,15,26.00
2013,09,10,15,16,26.20
2013,09,10,15,17,26.20
2013,09,10,15,18,26.20
2013,09,10,15,19,26.20
2013,09,10,15,20,26.20
2013,09,10,15,21,26.20
2013,09,10,15,22,26.10
2013,09,10,15,23,26.00
2013,09,10,15,24,25.80
2013,09,10,15,25,25.70
2013,09,10,15,26,25.50
2013,09,10,15,27,25.20
2013,09,10,15,28,25.00
2013,09,10,15,29,24.90
2013,09,10,15,30,24.80
2013,09,10,15,31,24.70
2013,09,10,15,32,24.60
2013,09,10,15,33,24.50
2013,09,10,15,34,24.40
2013,09,10,15,35,24.30
2013,09,10,15,36,24.40
2013,09,10,15,37,24.40
2013,09,10,15,38,24.40
2013,09,10,15,39,24.30
2013,09,10,15,40,24.30
2013,09,10,15,41,24.20
2013,09,10,15,42,24.10
2013,09,10,15,43,24.00
2013,09,10,15,44,23.80
2013,09,10,15,45,23.70
2013,09,10,15,46,23.60
2013,09,10,15,47,23.50
2013,09,10,15,48,23.40
2013,09,10,15,49,23.40
2013,09,10,15,50,23.40
2013,09,10,15,51,23.50
2013,09,10,15,52,23.50
2013,09,10,15,53,23.50
2013,09,10,15,54,23.60
2013,09,10,15,55,23.60
2013,09,10,15,56,23.60
2013,09,10,15,57,23.60
2013,09,10,15,58,23.60
2013,09,10,15,59,23.70
2013,09,10,16,00,23.70
2013,09,10,16,01,23.80
2013,09,10,16,02,23.80
2013,09,10,16,03,24.00
2013,09,10,16,04,24.10
2013,09,10,16,05,24.10
2013,09,10,16,06,24.20
2013,09,10,16,07,24.20
2013,09,10,16,08,24.20
2013,09,10,16,09,24.20
2013,09,10,16,10,24.10
2013,09,10,16,11,24.10
2013,09,10,16,12,24.00
2013,09,10,16,13,24.00
2013,09,10,16,14,24.00
2013,09,10,16,15,24.00
2013,09,10,16,16,24.00
2013,09,10,16,17,24.10
2013,09,10,16,18,24.10
2013,09,10,16,19,24.10
2013,09,10,16,20,24.10
2013,09,10,16,21,24.20
2013,09,10,16,22,24.30
2013,09,10,16,23,24.30
2013,09,10,16,24,24.40
2013,09,10,16,25,24.50
2013,09,10,16,26,24.60
2013,09,10,16,27,24.70
2013,09,10,16,28,24.80
2013,09,10,16,29,24.90
2013,09,10,16,30,25.10
2013,09,10,16,31,25.30
2013,09,10,16,32,25.50
2013,09,10,16,33,25.60
2013,09,10,16,34,25.80
2013,09,10,16,35,25.90
2013,09,10,16,36,25.90
2013,09,10,16,37,26.00
2013,09,10,16,38,26.10
2013,09,10,16,39,26.10
2013,09,10,16,40,26.20
2013,09,10,16,41,26.30
2013,09,10,16,42,26.30
2013,09,10,16,43,26.40
2013,09,10,16,44,26.40
2013,09,10,16,45,26.40
2013,09,10,16,46,26.40
2013,09,10,16,47,26.50
2013,09,10,16,48,26.60
2013,09,10,16,49,26.60
2013,09,10,16,50,26.50
2013,09,10,16,51,26.40
2013,09,10,16,52,26.40
2013,09,10,16,53,26.40
2013,09,10,16,54,26.50
2013,09,10,16,55,26.50
2013,09,10,16,56,26.50
2013,09,10,16,57,26.60
2013,09,10,16,58,26.70
2013,09,10,16,59,26.70
2013,09,10,17,00,26.70
2013,09,10,17,01,26.70
2013,09,10,17,02,26.70
2013,09,10,17,03,26.80
2013,09,10,17,04,26.80
2013,09,10,17,05,26.70
2013,09,10,17,06,26.70
2013,09,10,17,07,26.70
2013,09,10,17,08,26.60
2013,09,10,17,09,26.50
2013,09,10,17,10,26.50
2013,09,10,17,11,26.40
2013,09,10,17,12,26.40
2013,09,10,17,13,26.40
2013,09,10,17,14,26.40
2013,09,10,17,15,26.30
2013,09,10,17,16,26.20
2013,09,10,17,17,26.20
2013,09,10,17,18,26.20
2013,09,10,17,19,26.10